Terminal Aerodrome Forecast
Issued by NWS

Home | Current Version | Previous Version | Text Only | Print | Product List | Glossary On
Versions: 1 2 3 4 5 6 7 8 9 10 11 12 13 14 15 16 17 18 19 20 21 22 23 24 25 26 27 28
000
FTUS41 KCAR 202327
TAFFVE
TAF
KFVE 202327Z 2100/2124 30015G25KT P6SM -SHSN BKN025
     FM210600 31009G17KT P6SM SCT028
     FM211800 31008KT P6SM SCT035=

USA.gov is the U.S. government's official web portal to all federal, state and local government web resources and services.